Regional Weather Roundup
Issued by NWS Northern Indiana

Home | Current Version | Previous Version | Graphics & Text | Print | Product List | Glossary On
Versions: 1 2 3 4 5 6 7 8 9 10 11 12 13 14 15 16 17 18 19 20 21 22 23 24 25 26 27 28 29 30 31 32 33 34 35 36 37 38 39 40 41 42 43 44 45 46 47 48 49 50
893
ASUS43 KIWX 220010
RWRIWX

KIWX WEATHER ROUNDUP
NATIONAL WEATHER SERVICE NORTHERN INDIANA
800 PM EDT SAT APR 21 2018

NOTE: "FAIR" INDICATES FEW OR NO CLOUDS BELOW 12,000 FEET WITH NO
SIGNIFICANT WEATHER AND/OR OBSTRUCTIONS TO VISIBILITY.

* THESE STATIONS ARE NOT UNDER NWS QUALITY CONTROL. THEY ALSO MAY NOT
  REPORT WEATHER SUCH AS PRECIPITATION OR FOG.

INZ001>027-220100-
NORTHERN INDIANA

CITY           SKY/WX    TMP DP  RH WIND       PRES   REMARKS
GARY*          CLOUDY    45  27  49 NE8       30.37F
VALPARAISO     FAIR      51  32  48 N5        30.35F
6HR MIN TEMP:  51; 6HR MAX TEMP:  57;

MICHIGAN CITY* FAIR      46  25  42 N3        30.37S
LAPORTE*       FAIR      50  32  50 N5        30.36S
6HR MIN TEMP:  50; 6HR MAX TEMP:  54;

KNOX*          FAIR      52  28  40 E5        30.34S
SOUTH BEND     MOCLDY    51  29  42 N5        30.36F
6HR MIN TEMP:  51; 6HR MAX TEMP:  56;

GOSHEN         MOCLDY    53  33  46 E3        30.35F
6HR MIN TEMP:  53; 6HR MAX TEMP:  56;

MONTICELLO*    CLOUDY    55  24  30 E8        30.32F
6HR MIN TEMP:  54; 6HR MAX TEMP:  58;

LOGANSPORT*    FAIR      52  27  37 NE9       30.35F
ROCHESTER*     FAIR      54  25  32 E7        30.35F
WARSAW*        FAIR      52  28  40 E6        30.35F
AUBURN*        MOCLDY    52  30  43 E3        30.37F
FORT WAYNE     CLOUDY    51  29  42 E8        30.37F
6HR MIN TEMP:  51; 6HR MAX TEMP:  56;

HUNTINGTON*    FAIR      51  23  33 E6        30.35F
6HR MIN TEMP:  51; 6HR MAX TEMP:  55;

PERU/GRISSOM   CLOUDY    54  23  30 E14       30.34S
MARION*        FAIR      52  24  34 E6        30.35F
6HR MIN TEMP:  28; 6HR MAX TEMP:  58;


$$
INZ028>050-220100-
CENTRAL INDIANA

CITY           SKY/WX    TMP DP  RH WIND       PRES   REMARKS
LAFAYETTE      FAIR      54  24  31 E14G21    30.32S
6HR MIN TEMP:  54; 6HR MAX TEMP:  60;

KOKOMO*        MOCLDY    52  29  41 NE10      30.35F
6HR MIN TEMP:  52; 6HR MAX TEMP:  58;

MUNCIE*        FAIR      55  23  28 E12       30.33F
6HR MIN TEMP:  55; 6HR MAX TEMP:  60;

INDIANAPOLIS   CLOUDY    58  20  22 E13       30.31S
6HR MIN TEMP:  58; 6HR MAX TEMP:  60;


$$
MIZ043>046-050>051-056>058-064>065-071>073-077>080-220100-
SOUTHWEST LOWER MICHIGAN

CITY           SKY/WX    TMP DP  RH WIND       PRES   REMARKS
BATTLE CREEK   FAIR      56  26  31 SE3       30.36F
6HR MIN TEMP:  53; 6HR MAX TEMP:  58;

BENTON HARBOR  CLOUDY    48  20  32 VRB3      30.37S
6HR MIN TEMP:  48; 6HR MAX TEMP:  55;

COLDWATER*     FAIR      54  26  33 CALM      30.36S
6HR MIN TEMP:  54; 6HR MAX TEMP:  57;

HILLSDALE*     FAIR      50  25  37 E3        30.36F
HOLLAND        FAIR      49  22  34 W3        30.38S
6HR MIN TEMP:  49; 6HR MAX TEMP:  56;

GRAND RAPIDS   MOCLDY    54  22  28 W5        30.36F
6HR MIN TEMP:  54; 6HR MAX TEMP:  59;

KALAMAZOO      FAIR      54  28  36 NW7       30.36F
6HR MIN TEMP:  54; 6HR MAX TEMP:  59;

STURGIS*       CLOUDY    55  29  35 S5        30.35S
6HR MIN TEMP:  55; 6HR MAX TEMP:  59;

THREE RIVERS*  MOCLDY    56  28  35 S6        30.36S
6HR MIN TEMP:  56; 6HR MAX TEMP:  59;


$$
OHZ001>008-015>018-024>025-220100-
NORTHWEST OHIO

CITY           SKY/WX    TMP DP  RH WIND       PRES   REMARKS
WAUSEON*       FAIR      52  27  37 E10       30.38S
DEFIANCE       CLOUDY    54  28  36 E3        30.38S
6HR MIN TEMP:  53; 6HR MAX TEMP:  57;

FINDLAY        MOCLDY    52  17  25 NE10      30.37F
6HR MIN TEMP:  52; 6HR MAX TEMP:  58;

TOLEDO EXPRESS FAIR      51  19  28 E8        30.39F
6HR MIN TEMP:  51; 6HR MAX TEMP:  57;

TOLEDO METCALF FAIR      48  20  32 E6        30.41F
6HR MIN TEMP:  48; 6HR MAX TEMP:  53;

LIMA           MOCLDY    50  28  42 NE7       30.37S
6HR MIN TEMP:  50; 6HR MAX TEMP:  56;


$$
AND FOR LAKE MICHIGAN COASTAL AND OPEN LAKE BUOY OBSERVATIONS

STATION/POSITION TEMP    WIND        PRES    VSBY  WAVE
                 AIR SEA DIR/SP/G                  HT/PER
                 (F)     (DEG/KT/KT) (MB)    (MI)  (FT/S)
CALUMET HARBOR    41      20/  4/  7 1027.7F
MICHIGAN CITY     43      30/ 10/ 10   N/A
BURNS HARBOR      43      60/  8/ 10 1028.4F
SAINT JOSEPH      45      30/  5/  9 1028.4

$$
&&




USA.gov is the U.S. government's official web portal to all federal, state and local government web resources and services.